Location: Colorado National Monument
(39.1030°N, 108.7297°W)
Time: 04:51:07
(UTC-06:00)

OTV 5 (USA 277) - Visible Passes

Search period start: 18 October 2019 00:00
Search period end: 28 October 2019 00:00
Orbit: 310 x 324 km, 54.5° (Epoch: 08 October)

Date Brightness Start Highest point End Pass type
(mag) Time Alt. Az. Time Alt. Az. Time Alt. Az.
18 Oct ? 06:10:32 13° NNW 06:12:20 22° NE 06:14:34 10° E visible
19 Oct ? 06:25:04 17° NW 06:27:00 60° NE 06:29:41 10° ESE visible
20 Oct ? 05:08:49 10° ENE 05:08:49 10° ENE 05:08:50 10° ENE visible
20 Oct ? 06:39:44 17° WNW 06:41:31 38° SW 06:44:03 10° SSE visible
21 Oct ? 05:23:36 16° E 05:23:36 16° E 05:24:20 10° ESE visible
21 Oct ? 06:54:32 10° W 06:55:52 13° SW 06:57:12 10° SSW visible
22 Oct ? 05:38:32 15° SE 05:38:32 15° SE 05:39:06 10° SE visible
26 Oct ? 19:42:43 10° S 19:44:03 20° SSE 19:44:03 20° SSE visible
27 Oct ? 19:56:47 10° SW 19:58:47 44° SW 19:58:47 44° SW visible
